Weather Roundup
Issued by NWS Springfield, MO

Home | Current Version | Previous Version | Text Only | Print | Product List | Glossary On
Versions: 1 2 3 4 5 6 7 8 9 10 11 12 13 14 15 16 17 18 19 20 21 22 23 24 25 26 27 28 29 30 31 32 33 34 35 36 37 38 39 40 41 42 43 44 45 46 47 48 49 50
000
NZUS99 KSGF 241057
HRRSGF

HOURLY WEATHER
NATIONAL WEATHER SERVICE SPRINGFIELD MO
600 AM CDT FRI MAR 24 2017

......SGF CWA......

CITY           SKY/WX    TMP DP  RH WIND       PRES   REMARKS
SPRINGFIELD    CLOUDY    58  46  64 SE10      29.92S
JOPLIN         PTCLDY    67  42  40 S21G28    29.84F
WEST PLAINS    PTCLDY    61  50  67 S8        30.01R
ROLLA          CLEAR     63  48  58 S14       29.95R

......SURROUNDING SGF CWA......

CITY           SKY/WX    TMP DP  RH WIND       PRES   REMARKS
CHANUTE        CLOUDY    69  40  34 S21G29    29.80R
PARSONS        CLOUDY    69  39  33 S16G24    29.81R
COFFEYVILLE    CLOUDY    69  40  34 S24G32    29.80R
EMPORIA        CLOUDY    64  46  52 S18G25    29.72F
HARRISON AR    CLOUDY    67  49  52 S14G26    29.98R

......KANSAS AND MISSOURI......

CITY           SKY/WX    TMP DP  RH WIND       PRES   REMARKS
KANSAS CTY INT PTCLDY    67  47  48 S17G29    29.77F
SEDALIA        CLEAR     64  48  56 S15       29.87F
ST JOSEPH      CLOUDY    66  51  58 S13       29.75F
ST LOUIS       PTCLDY    63  50  62 S9        29.95R
WICHITA        CLOUDY    68  42  38 S24G35    29.67F
TOPEKA         CLOUDY    69  47  45 S20G29    29.71F
OLATHE         CLEAR     67  47  48 S15G25    29.78F

......TENNESSEE......

CITY           SKY/WX    TMP DP  RH WIND       PRES   REMARKS
MEMPHIS        NOT AVBL
NASHVILLE      CLOUDY    60  47  61 S13       30.23S

......ARKANSAS.......

CITY           SKY/WX    TMP DP  RH WIND       PRES   REMARKS
FAYETTEVILLE   PTCLDY    64  42  44 S10       29.95R
FT SMITH       MOCLDY    69  40  34 S5        29.96R
LITTLE ROCK    CLOUDY    64  58  80 SE9       30.00S

......OKLAHOMA.......

CITY           SKY/WX    TMP DP  RH WIND       PRES   REMARKS
TULSA          CLOUDY    68  45  43 S24G31    29.80R
PONCA CITY     CLOUDY    68  45  43 S17G25    29.74S
MCALESTER      MOCLDY    66  51  58 S13G25    29.86F
OKLAHOMA CITY  MOCLDY    66  52  60 S28G38    29.75S

......IOWA............

CITY           SKY/WX    TMP DP  RH WIND       PRES   REMARKS
DES MOINES     NOT AVBL
QUAD CITIES    CLEAR     54  44  69 S9        29.85R

......ILLINOIS........

CITY           SKY/WX    TMP DP  RH WIND       PRES   REMARKS
QUINCY         NOT AVBL
CHICAGO        CLOUDY    51  40  65 SW13      29.90S




USA.gov is the U.S. government's official web portal to all federal, state and local government web resources and services.